Zurück zum Katalog

STARLINK-36098

AktivKommunikationVLEO
NORAD 66816·PAYLOAD·🇺🇸 United States

Gestartet Dec 1, 2025 von Cape Canaveral Space Force Station

Loading…

Nächste Überflüge (nächste 24 Stunden)

TLE

AktuellSource: CelesTrak SupGP

Epoche: Sep 14, 2026, 23:22 UTC

1 66816C 25278AB  26257.97409722 -.00015890  00000+0 -57558-3 0  2577
2 66816  42.9994 124.9800 0001345 271.2873  41.9004 15.27583816    18

Verfolge STARLINK-36098 in Echtzeit mit AllMySat

Download on the App Store